| time (UTC) | temp F | wind direction | speed MPH | gust MPH | rain 1hr in | rain 24hr in | rain mn in | humidity % | barometer mb |
| 20260504213003 | 85 | 172 | 0.0 | 2.0 | 0.00 | 0.00 | 0.00 | 51 | 1013.1 |
| 20260504211559 | 85 | 67 | 0.0 | 3.0 | 0.00 | 0.00 | 0.00 | 50 | 1013.1 |
| 20260504210059 | 85 | 101 | 0.0 | 2.0 | 0.00 | 0.00 | 0.00 | 49 | 1013.2 |
| 20260504204559 | 86 | 103 | 0.0 | 1.0 | 0.00 | 0.00 | 0.00 | 48 | 1013.3 |
| 20260504203047 | 86 | 117 | 0.0 | 0.0 | 0.00 | 0.00 | 0.00 | 47 | 1013.4 |
| 20260504201541 | 85 | 89 | 0.0 | 3.0 | 0.00 | 0.00 | 0.00 | 48 | 1013.5 |
| 20260504200036 | 86 | 79 | 0.0 | 2.0 | 0.00 | 0.00 | 0.00 | 46 | 1013.6 |
| 20260504194532 | 87 | 118 | 0.0 | 2.0 | 0.00 | 0.00 | 0.00 | 46 | 1013.8 |
| 20260504193026 | 86 | 212 | 0.0 | 3.0 | 0.00 | 0.00 | 0.00 | 49 | 1014.1 |
| 20260504191526 | 86 | 69 | 0.0 | 2.0 | 0.00 | 0.00 | 0.00 | 48 | 1014.1 |
| 20260504190017 | 85 | 202 | 0.0 | 2.0 | 0.00 | 0.00 | 0.00 | 50 | 1014.4 |
| 20260504184512 | 84 | 147 | 0.0 | 3.0 | 0.00 | 0.00 | 0.00 | 51 | 1014.7 |
| 20260504183007 | 83 | 68 | 0.0 | 2.0 | 0.00 | 0.00 | 0.00 | 50 | 1015.0 |
| 20260504181503 | 84 | 103 | 0.0 | 3.0 | 0.00 | 0.00 | 0.00 | 50 | 1015.2 |
| 20260504180138 | 83 | 20 | 0.0 | 3.0 | 0.00 | 0.00 | 0.00 | 51 | 1015.4 |
| 20260504174553 | 84 | 30 | 0.0 | 2.0 | 0.00 | 0.00 | 0.00 | 50 | 1015.5 |
| 20260504173049 | 84 | 175 | 0.0 | 2.0 | 0.00 | 0.00 | 0.00 | 51 | 1015.8 |
| 20260504171548 | 83 | 102 | 0.0 | 2.0 | 0.00 | 0.00 | 0.00 | 52 | 1015.9 |
| 20260504081600 | 0 | 0.0 | 0.0 | 0.00 | 0.00 | 0.00 | 1015.1 | ||
| 20260504050002 | 0 | 0.0 | 0.0 | 0.00 | 0.00 | 0.00 | 1016.5 | ||
| 20260504044557 | 0 | 0.0 | 0.0 | 0.00 | 0.00 | 0.00 | 1016.3 | ||
| 20260504043101 | 0 | 0.0 | 0.0 | 0.00 | 0.00 | 0.00 | 1016.5 | ||
| 20260504041549 | 70 | 105 | 0.0 | 0.0 | 0.00 | 0.00 | 0.00 | 1 | 1016.8 |
| 20260504040052 | 71 | 98 | 0.0 | 0.0 | 0.00 | 0.00 | 0.00 | 1 | 1016.7 |
| 20260504034547 | 71 | 65 | 0.0 | 0.0 | 0.00 | 0.00 | 0.00 | 1 | 1016.9 |
| 20260504033040 | 72 | 204 | 0.0 | 1.0 | 0.00 | 0.00 | 0.00 | 1 | 1016.9 |
| 20260504031532 | 72 | 127 | 0.0 | 1.0 | 0.00 | 0.00 | 0.00 | 1 | 1016.8 |
| 20260504030027 | 72 | 153 | 0.0 | 1.0 | 0.00 | 0.00 | 0.00 | 1 | 1016.8 |
| 20260504024523 | 72 | 138 | 0.0 | 0.0 | 0.00 | 0.00 | 0.00 | 1 | 1016.8 |
| 20260504023018 | 72 | 155 | 0.0 | 0.0 | 0.00 | 0.00 | 0.00 | 1 | 1016.7 |
| 20260504021515 | 72 | 80 | 0.0 | 0.0 | 0.00 | 0.00 | 0.00 | 1 | 1016.3 |
| 20260504020009 | 72 | 127 | 0.0 | 0.0 | 0.00 | 0.00 | 0.00 | 3 | 1016.3 |
| 20260504014504 | 72 | 137 | 0.0 | 0.0 | 0.00 | 0.00 | 0.00 | 14 | 1016.2 |
| 20260504013106 | 73 | 171 | 0.0 | 0.0 | 0.00 | 0.00 | 0.00 | 19 | 1016.2 |
| 20260504011556 | 73 | 171 | 0.0 | 0.0 | 0.00 | 0.00 | 0.00 | 27 | 1016.0 |
| 20260504010051 | 73 | 301 | 0.0 | 0.0 | 0.00 | 0.00 | 0.00 | 39 | 1015.8 |
| 20260504004547 | 74 | 85 | 0.0 | 0.0 | 0.00 | 0.01 | 0.00 | 48 | 1015.5 |
| 20260504003046 | 74 | 204 | 0.0 | 0.0 | 0.00 | 0.01 | 0.00 | 53 | 1015.4 |
| 20260504001540 | 74 | 252 | 0.0 | 0.0 | 0.00 | 0.01 | 0.00 | 57 | 1015.3 |
| 20260504000037 | 74 | 121 | 0.0 | 0.0 | 0.00 | 0.01 | 0.00 | 58 | 1015.2 |
| 20260503234529 | 75 | 120 | 0.0 | 0.0 | 0.00 | 0.03 | 0.00 | 60 | 1015.1 |
| 20260503233025 | 76 | 167 | 0.0 | 0.0 | 0.00 | 0.03 | 0.00 | 62 | 1015.0 |
| 20260503231522 | 76 | 77 | 0.0 | 1.0 | 0.00 | 0.03 | 0.00 | 64 | 1015.0 |
| 20260503230021 | 76 | 57 | 0.0 | 1.0 | 0.00 | 0.03 | 0.00 | 64 | 1015.0 |
| 20260503224512 | 77 | 115 | 0.0 | 2.0 | 0.00 | 0.07 | 0.00 | 64 | 1014.8 |
| 20260503223007 | 76 | 108 | 0.0 | 1.0 | 0.00 | 0.07 | 0.00 | 64 | 1014.8 |
| 20260503221503 | 77 | 115 | 0.0 | 2.0 | 0.00 | 0.07 | 0.00 | 64 | 1014.9 |
| 20260503220059 | 77 | 104 | 0.0 | 2.0 | 0.00 | 0.07 | 0.00 | 64 | 1014.8 |
| 20260503214554 | 77 | 112 | 0.0 | 1.0 | 0.00 | 0.20 | 0.00 | 64 | 1014.8 |